STARLINK-31882 (59855 NORAD) Tracking and Keplerian Element Data

This shows tracking and keplerian element data for the satellite.

Feedback or suggestion? Click here.




ElementValue
Catalog59855
NameSTARLINK-31882
Epoch Orbit375
Epoch Day160.16667824
Epoch Year2024
RAAN318.5926
Inclination43.0008
Eccentricity0.0001743
Argument of Perigee282.516
Mean Anonmoly97.4769
Mean Motion15.66640038
Decay Rate-0.0174092
L11 59855U 24097W 24160.16667824 -.01740920 00000+0 -18387-1 0 9999
L22 59855 43.0008 318.5926 0001743 282.5160 97.4769 15.66640038 3758



Live tracking and technical data element details for STARLINK-31882 (NORAD 59855). STARLINK-31882 can be tracked NOW for your location showing map with azimuth and elevation plus other details from your city location.







IsCatalogInMostPopularTable: catalog: 59855, numindb: 6
Update: records affected: 1



GetName: 59855 STARLINK-31882

Hit Count: updated at: Tue, 16 Jul 2024 03:27:36 GMT